Location: Banff
(51.1667°N, 115.5667°W)
Time: 03:06:01
(UTC+00:00)

deb Explorer IX - Pass Details

Date: 28 November 2020
Orbit: 536 x 1104 km, 38.8° (Epoch: 25 January)

Event Time Altitude Azimuth Distance (km) Brightness Sun altitude
Rises 03:31:30 0° 250° (WSW) 3,198 ? -35.3°
Reaches altitude 10° 03:34:48 10° 231° (SW) 2,153 ? -35.9°
Enters shadow 03:35:18 12° 227° (SW) 2,024 ? -35.9°
